Flag Weather past 2 weeks in Braunschweig, Lower Saxony, Germany

Now
39 °F

Chilly.


Feels Like: 30 °F
Forecast: 31 / 38 °F
Wind: 16 mph from East

Location: Braunschweig

Current Time: Nov 27, 2014 at 2:40:06 PM

Latest Report: Nov 27, 2014 at 2:20 PM


Visibility: N/A

Pressure: 29.89 "Hg

Humidity: 81%

Dew point: 34 °F

Location of BraunschweigLocation

Historic Weather in Braunschweig — Graph

°F

Braunschweig temperature yesterday

Maximum temperature yesterday: 41 °F (at 12:50 PM)
Minimum temperature yesterday: 37 °F (at 7:50 AM)
Average temperature yesterday: 39 °F

Past Weeks' High & Low Weather Summary

 TemperatureHumidityPressure
High54 °F (Nov 14, 12:50 PM)100% (Nov 12, 1:20 PM)30.36 "Hg (Nov 12, 1:20 PM)
Low32 °F (Nov 27, 4:50 AM)72% (Nov 17, 3:20 PM)29.50 "Hg (Nov 16, 1:20 PM)
Average45 °F96%30.02 "Hg
* Reported Nov 12 1:20 PM — Nov 27 1:20 PM, Braunschweig, Weather by CustomWeather, © 2014

Note: Actual official high and low records may vary slightly from our data, if they occured in-between our weather recording intervals... More about our weather records

Advertising

Braunschweig weather history for previous 24 hours

 ConditionsComfort  
Time TempWeatherWind HumidityBarometerVisibility
1:20 PM
Nov 27
39 °FSunny.16 mph81%29.92 "Hg10 mi
12:50 PM39 °FSunny.15 mph81%29.92 "Hg10 mi
12:20 PM37 °FSunny.15 mph81%29.92 "Hg10 mi
11:50 AM37 °FSunny.14 mph81%29.92 "Hg10 mi
11:20 AM37 °FClear.13 mph87%29.92 "Hg6 mi
10:50 AM36 °FClear.13 mph87%29.92 "Hg6 mi
10:20 AM34 °FClear.15 mph93%29.95 "Hg6 mi
9:50 AM34 °FClear.14 mph93%29.95 "Hg6 mi
9:20 AM34 °FClear.14 mph93%29.95 "Hg6 mi
8:50 AM32 °FClear.13 mph100%29.95 "Hg6 mi
8:20 AM32 °FClear.12 mph93%29.95 "Hg5 mi
7:50 AM32 °FClear.9 mph93%29.95 "Hg5 mi
7:20 AM32 °FClear.10 mph93%29.95 "Hg5 mi
6:50 AM32 °FClear.15 mph100%29.95 "Hg4 mi
6:20 AM32 °FClear.13 mph93%29.95 "Hg5 mi
4:50 AM32 °FClear.9 mph100%29.95 "Hg10 mi
3:50 AM34 °FClear.10 mph93%29.98 "Hg10 mi
9:20 PM
Nov 26
37 °FClear.17 mph81%30.07 "Hg10 mi
8:50 PM37 °FClear.17 mph87%30.07 "Hg10 mi
8:20 PM39 °FClear.18 mph87%30.07 "Hg10 mi
7:50 PM39 °FPassing clouds.17 mph93%30.07 "HgN/A
7:20 PM39 °FPassing clouds.15 mph93%30.07 "HgN/A
6:50 PM39 °FPartly cloudy.17 mph93%30.07 "HgN/A
6:20 PM39 °FPartly cloudy.17 mph93%30.07 "HgN/A
5:50 PM39 °FPassing clouds.16 mph93%30.09 "HgN/A
5:20 PM39 °FPassing clouds.15 mph87%30.09 "HgN/A
4:50 PM39 °FClear.16 mph87%30.09 "Hg10 mi
4:20 PM39 °FClear.14 mph93%30.09 "Hg10 mi
3:50 PM39 °FSunny.16 mph93%30.09 "Hg10 mi
3:20 PM41 °FPassing clouds.14 mph81%30.09 "HgN/A
2:50 PM41 °FPassing clouds.17 mph81%30.09 "HgN/A
2:20 PM41 °FScattered clouds.16 mph81%30.12 "HgN/A
Weather by CustomWeather, © 2014

See weather overviewHow to use our weather pages